Погода в Кала-Бланке

Испания     39°58′15″N   3°50′07″E
темп.,
°C
ветер,
м/с
пор.,
м/с
влажн.,
%
обл.,
%
осадки,
мм/ч
давл.,
гПа
погр.,
м
19 апреля, пн
пн1923:00+14юз45565 0.0 1021763
02:00+13зюз55665 0.0 1020413
05:00+13зюз3362100 0.0 1020575
08:00+13зюз3368100 0.0 1019394
11:00+13юз55685 0.0 1019489
14:00+15ю66675 0.0 1018546
17:00+15ю88764 0.0 1016400
20:00+15ююз567669 0.1 1016221
20 апреля, вт
вт2023:00+15ююз6681100 0.0 1017275
02:00+15ююз4478100 0.0 1016300
05:00+15ю4576100 0.0 1016306
08:00+15ююв4576100 0.0 1016334
11:00+15ююв6674100 0.0 1016429
14:00+15ююв777367 0.0 1016419
17:00+15ююв897494 0.0 1014397
20:00+15ююв897976 0.0 1014357
21 апреля, ср
ср2123:00+15ююв688389 0.0 1015389
02:00+15ююв7884100 0.0 1014460
05:00+15ююв5783100 0.0 1013417
08:00+15юв788172 0.1 1013435
11:00+15юв5578100 0.6 1014551
14:00+15ююв567199 0.6 1014389
17:00+15юв557943 0.1 1013309
20:00+15юв4483100 0.1 1013174
22 апреля, чт
чт2223:00+15вюв3386100 0.0 1014114
02:00+15в338464 0.0 101494
05:00+14в3488100 0.0 1012154
08:00+14в3490100 0.0 1013203
11:00+16вюв2386100 0.1 1013139
14:00+15зюз3386100 3.0 1013235
17:00+14сз3290100 3.4 1012216
20:00+13сз3391100 6.4 1013275
23 апреля, пт
пт2323:00+13ссз3392100 3.6 1014261
02:00+14сз8888100 5.9 1013535
05:00+14ссв788946 0.2 1013577
08:00+14ссв9128696 0.4 1014728
11:00+15св8108146 0.0 1016721
14:00+15св79775 0.0 1017568
17:00+15ссв79730 0.0 1017514
20:00+15с56740 0.0 1017387